D8954 Weather Reports


Display with metric or nautical units.
time (UTC)temp
F
wind
direction
speed
MPH
gust
MPH
rain 1hr
in
rain 24hr
in
rain mn
in
humidity
%
barometer
mb
20210922082005 56 38 2.0 6.0 0.00 0.00 0.00 78 1029.9
20210922081006 55 36 3.0 5.0 0.00 0.00 0.00 83 1029.9
20210922080006 54 279 1.0 2.0 0.00 0.00 0.00 83 1030.0
20210922075006 53 279 0.0 2.0 0.00 0.00 0.00 84 1030.0
20210922074005 53 280 0.0 2.0 0.00 0.00 0.00 88 1030.0
20210922073005 51 280 2.0 3.0 0.00 0.00 0.00 89 1029.9
20210922072005 50 283 0.0 0.0 0.00 0.00 0.00 91 1030.0
20210922071005 49 283 0.0 0.0 0.00 0.00 0.00 92 1030.0
20210922070005 48 283 0.0 0.0 0.00 0.00 0.00 92 1029.9
20210922065005 47 283 0.0 0.0 0.00 0.00 0.00 92 1029.8
20210922064005 46 283 0.0 0.0 0.00 0.00 0.00 92 1029.8
20210922063006 46 283 0.0 0.0 0.00 0.00 0.00 92 1029.9
20210922062006 45 283 0.0 1.0 0.00 0.00 0.00 91 1029.9
20210922061005 44 283 0.0 2.0 0.00 0.00 0.00 91 1029.9
20210922060006 44 283 0.0 1.0 0.00 0.00 0.00 91 1029.8
20210922055005 44 283 0.0 2.0 0.00 0.00 0.00 91 1029.7
20210922054005 44 283 1.0 5.0 0.00 0.00 0.00 91 1029.7
20210922053005 44 283 2.0 3.0 0.00 0.00 0.00 91 1029.7
20210922052005 44 285 2.0 2.0 0.00 0.00 0.00 92 1029.6
20210922051005 44 285 0.0 2.0 0.00 0.00 0.00 92 1029.6
20210922050005 43 285 0.0 2.0 0.00 0.00 0.00 92 1029.6
20210922045005 43 285 0.0 1.0 0.00 0.00 0.00 92 1029.5
20210922044005 43 285 1.0 2.0 0.00 0.00 0.00 91 1029.4
20210922043008 44 285 1.0 2.0 0.00 0.00 0.00 90 1029.5
20210922042005 44 285 1.0 2.0 0.00 0.00 0.00 91 1029.4
20210922041005 43 285 0.0 2.0 0.00 0.00 0.00 91 1029.5
20210922040005 44 285 1.0 3.0 0.00 0.00 0.00 90 1029.4
20210922035005 44 285 2.0 3.0 0.00 0.00 0.00 92 1029.3
20210922034005 44 286 1.0 2.0 0.00 0.00 0.00 91 1029.3
20210922033005 44 286 1.0 2.0 0.00 0.00 0.00 92 1029.3
20210922032005 44 285 2.0 3.0 0.00 0.00 0.00 91 1029.3
20210922031005 44 290 0.0 5.0 0.00 0.00 0.00 91 1029.3
20210922030006 44 292 2.0 3.0 0.00 0.00 0.00 91 1029.4
20210922025005 44 292 3.0 7.0 0.00 0.00 0.00 90 1029.3
20210922024005 43 266 1.0 3.0 0.00 0.00 0.00 91 1029.2
20210922023006 44 266 1.0 2.0 0.00 0.00 0.00 91 1029.2
20210922022005 45 266 1.0 5.0 0.00 0.00 0.00 89 1029.2
20210922021005 45 270 3.0 5.0 0.00 0.00 0.00 89 1029.3
20210922020006 44 277 2.0 5.0 0.00 0.00 0.00 90 1029.4
20210922015005 44 285 2.0 3.0 0.00 0.00 0.00 90 1029.5
20210922014005 44 285 2.0 5.0 0.00 0.00 0.00 90 1029.5
20210922013005 44 262 2.0 3.0 0.00 0.00 0.00 90 1029.5
20210922012007 44 262 1.0 3.0 0.00 0.00 0.00 89 1029.5
20210922011005 45 277 2.0 6.0 0.00 0.00 0.00 89 1029.6
20210922010005 45 268 1.0 5.0 0.00 0.00 0.00 90 1029.6
20210922005005 45 268 2.0 3.0 0.00 0.00 0.00 90 1029.7
20210922004005 45 268 1.0 3.0 0.00 0.00 0.00 89 1029.5
20210922003005 45 267 1.0 3.0 0.00 0.00 0.00 89 1029.6
20210922002005 45 269 1.0 3.0 0.00 0.00 0.00 89 1029.7
20210922001005 45 273 3.0 6.0 0.00 0.00 0.00 88 1029.6
20210922000005 45 273 0.0 2.0 0.00 0.00 0.00 89 1029.7
20210921235005 45 273 1.0 5.0 0.00 0.00 0.00 89 1029.7
20210921234005 45 269 2.0 3.0 0.00 0.00 0.00 89 1029.7
20210921233005 45 269 1.0 3.0 0.00 0.00 0.00 89 1029.7
20210921232005 45 269 1.0 5.0 0.00 0.00 0.00 89 1029.7
20210921231005 45 268 2.0 3.0 0.00 0.00 0.00 89 1030.0
20210921230005 46 268 3.0 6.0 0.00 0.00 0.00 88 1030.0
20210921225005 46 268 3.0 5.0 0.00 0.00 0.00 88 1030.0
20210921224005 46 268 1.0 3.0 0.00 0.00 0.00 88 1030.1
20210921223005 45 268 2.0 3.0 0.00 0.00 0.00 88 1030.1
20210921222005 46 268 2.0 3.0 0.00 0.00 0.00 87 1030.2
20210921221005 46 268 1.0 3.0 0.00 0.00 0.00 87 1030.2
20210921220007 46 268 0.0 2.0 0.00 0.00 0.00 87 1030.3
20210921215005 46 268 1.0 2.0 0.00 0.00 0.00 88 1030.3
20210921214005 46 268 1.0 2.0 0.00 0.00 0.00 87 1030.2
20210921213005 46 268 0.0 1.0 0.00 0.00 0.00 87 1030.4
20210921212005 46 268 1.0 2.0 0.00 0.00 0.00 87 1030.3
20210921211005 46 268 0.0 2.0 0.00 0.00 0.00 88 1030.2
20210921210005 46 268 2.0 3.0 0.00 0.00 0.00 87 1030.1
20210921205005 46 268 0.0 3.0 0.00 0.00 0.00 87 1030.1
20210921204005 46 268 3.0 5.0 0.00 0.00 0.00 87 1030.1
20210921203005 47 268 2.0 3.0 0.00 0.00 0.00 87 1030.1
20210921202005 47 268 1.0 3.0 0.00 0.00 0.00 86 1029.9
20210921201005 48 268 1.0 2.0 0.00 0.00 0.00 86 1030.0
20210921200005 48 268 1.0 2.0 0.00 0.00 0.00 86 1030.1
20210921195005 48 268 0.0 2.0 0.00 0.00 0.00 87 1030.3
20210921194005 48 268 0.0 3.0 0.00 0.00 0.00 86 1030.4
20210921193005 48 268 1.0 3.0 0.00 0.00 0.00 86 1030.2
20210921192005 48 268 2.0 3.0 0.00 0.00 0.00 87 1030.1
20210921191005 48 268 2.0 5.0 0.00 0.00 0.00 87 1030.0
20210921190005 48 268 2.0 3.0 0.00 0.00 0.00 87 1029.7
20210921185004 48 268 1.0 2.0 0.00 0.00 0.00 86 1029.7
20210921184005 48 268 1.0 3.0 0.00 0.00 0.00 85 1029.8
20210921183006 49 268 2.0 5.0 0.00 0.00 0.00 84 1029.7
20210921182005 49 279 2.0 3.0 0.00 0.00 0.00 83 1029.7
20210921181005 49 279 1.0 2.0 0.00 0.00 0.00 83 1029.6
20210921180005 50 279 2.0 5.0 0.00 0.00 0.00 83 1029.5
20210921175005 50 279 3.0 6.0 0.00 0.00 0.00 83 1029.4
20210921174005 50 279 3.0 6.0 0.00 0.00 0.00 82 1029.5
20210921173005 51 279 3.0 6.0 0.00 0.00 0.00 82 1029.3
20210921172005 52 279 3.0 6.0 0.00 0.00 0.00 78 1029.4
20210921171005 52 275 4.0 5.0 0.00 0.00 0.00 80 1029.4
20210921170005 52 289 3.0 5.0 0.00 0.00 0.00 78 1029.4
20210921165005 53 304 2.0 3.0 0.00 0.00 0.00 77 1029.4
20210921164004 54 47 2.0 3.0 0.00 0.00 0.00 74 1029.2
20210921163005 54 47 1.0 2.0 0.00 0.00 0.00 74 1029.0
20210921162005 55 47 1.0 2.0 0.00 0.00 0.00 71 1028.9
20210921161005 57 47 1.0 3.0 0.00 0.00 0.00 68 1028.8
20210921160006 57 44 3.0 6.0 0.00 0.00 0.00 61 1028.9
20210921155004 57 83 2.0 6.0 0.00 0.00 0.00 57 1028.7
20210921154005 58 88 4.0 7.0 0.00 0.00 0.00 57 1028.7
20210921153005 58 79 4.0 6.0 0.00 0.00 0.00 57 1028.5
20210921152005 58 45 3.0 6.0 0.00 0.00 0.00 57 1028.4
20210921151005 58 43 3.0 9.0 0.00 0.00 0.00 56 1028.4
20210921150005 58 91 5.0 9.0 0.00 0.00 0.00 54 1028.4
20210921145005 58 43 3.0 9.0 0.00 0.00 0.00 58 1028.3
20210921144005 58 33 6.0 7.0 0.00 0.00 0.00 56 1028.5
20210921143005 59 42 5.0 8.0 0.00 0.00 0.00 57 1028.5
20210921142005 58 25 5.0 9.0 0.00 0.00 0.00 55 1028.5
20210921141004 58 140 2.0 9.0 0.00 0.00 0.00 53 1028.6
20210921140005 59 32 5.0 8.0 0.00 0.00 0.00 53 1028.6
20210921135005 59 67 2.0 12.0 0.00 0.00 0.00 53 1028.6
20210921134004 59 86 4.0 7.0 0.00 0.00 0.00 54 1028.6
20210921133005 59 92 6.0 10.0 0.00 0.00 0.00 55 1028.7
20210921132005 59 40 5.0 9.0 0.00 0.00 0.00 56 1028.7
20210921131005 59 53 5.0 10.0 0.00 0.00 0.00 55 1028.9
20210921130005 58 52 5.0 15.0 0.00 0.00 0.00 53 1028.8
20210921125005 59 114 5.0 9.0 0.00 0.00 0.00 54 1028.9
20210921124005 58 72 2.0 8.0 0.00 0.00 0.00 56 1028.9
20210921123005 57 58 4.0 13.0 0.00 0.00 0.00 56 1029.0
20210921122004 58 8 5.0 9.0 0.00 0.00 0.00 55 1029.0
20210921121005 58 65 7.0 13.0 0.00 0.00 0.00 54 1029.0
20210921120005 59 53 9.0 14.0 0.00 0.00 0.00 54 1029.0
20210921115005 58 55 6.0 12.0 0.00 0.00 0.00 57 1028.9
20210921114005 58 106 5.0 12.0 0.00 0.00 0.00 55 1028.8
20210921113005 57 138 1.0 13.0 0.00 0.00 0.00 55 1028.8
20210921112004 57 62 6.0 14.0 0.00 0.00 0.00 59 1028.8
20210921111004 57 42 7.0 10.0 0.00 0.00 0.00 56 1028.8
20210921110004 57 70 4.0 10.0 0.00 0.00 0.00 58 1028.9
20210921105005 56 87 6.0 12.0 0.00 0.00 0.00 59 1028.9
20210921104004 55 86 5.0 10.0 0.00 0.00 0.00 58 1029.0
20210921103005 55 28 8.0 13.0 0.00 0.00 0.00 59 1029.0
20210921102005 55 58 5.0 9.0 0.00 0.00 0.00 64 1029.0
20210921101005 54 37 5.0 9.0 0.00 0.00 0.00 60 1029.0
20210921100005 54 36 5.0 10.0 0.00 0.00 0.00 61 1029.0
20210921095005 55 100 2.0 9.0 0.00 0.00 0.00 60 1028.9
20210921094005 55 128 6.0 13.0 0.00 0.00 0.00 60 1028.9
20210921093005 56 97 6.0 10.0 0.00 0.00 0.00 60 1029.0
20210921092005 56 71 4.0 12.0 0.00 0.00 0.00 61 1028.8
20210921091005 55 49 3.0 8.0 0.00 0.00 0.00 66 1028.6
20210921090004 55 56 5.0 9.0 0.00 0.00 0.00 66 1028.7
20210921085005 54 21 6.0 9.0 0.00 0.00 0.00 65 1028.5
20210921084005 54 63 5.0 10.0 0.00 0.00 0.00 69 1028.6
20210921083005 54 39 5.0 9.0 0.00 0.00 0.00 70 1028.6